Meteo pe oră la Bolshoe Lyahovo

Astăzi, 9 Mai, Duminică

Timp Temperatura Precipitaţii Vânt Presiune Umiditate
00:00 +10°C° 0.1 mm 6 m/s 739 mmHg 89%
01:00 +10°C° 0.6 mm 5 m/s 739 mmHg 92%
02:00 +10°C° 0.6 mm 5 m/s 739 mmHg 94%
03:00 +10°C° 0 mm 5 m/s 739 mmHg 96%
04:00 +10°C° 0.8 mm 5 m/s 739 mmHg 96%
05:00 +11°C° 0.8 mm 4 m/s 739 mmHg 96%
06:00 +11°C° 0.8 mm 4 m/s 738 mmHg 95%
07:00 +11°C° 1.7 mm 3 m/s 739 mmHg 96%
08:00 +12°C° 1.7 mm 2 m/s 739 mmHg 96%
09:00 +12°C° 0 mm 1 m/s 739 mmHg 97%
10:00 +10°C° 1.6 mm 2 m/s 739 mmHg 96%
11:00 +9°C° 1.6 mm 3 m/s 740 mmHg 96%
12:00 +8°C° 1.6 mm 5 m/s 740 mmHg 95%
13:00 +8°C° 1 mm 4 m/s 741 mmHg 95%
14:00 +9°C° 1 mm 3 m/s 741 mmHg 95%
15:00 +8°C° 1 mm 2 m/s 742 mmHg 96%
16:00 +8°C° 0.5 mm 3 m/s 742 mmHg 95%
17:00 +7°C° 0.5 mm 4 m/s 743 mmHg 95%
18:00 +6°C° 0.5 mm 4 m/s 743 mmHg 94%
19:00 +5°C° 0.1 mm 4 m/s 744 mmHg 95%
20:00 +5°C° 0.1 mm 4 m/s 745 mmHg 95%
21:00 +4°C° 0.1 mm 4 m/s 746 mmHg 95%
22:00 +4°C° 0 mm 4 m/s 746 mmHg 95%
23:00 +4°C° 0 mm 4 m/s 746 mmHg 95%

Mâine, 10 Mai, Luni

Timp Temperatura Precipitaţii Vânt Presiune Umiditate
00:00 +4°C° 0 mm 4 m/s 747 mmHg 95%
01:00 +5°C° 0 mm 4 m/s 747 mmHg 95%
02:00 +5°C° 0 mm 4 m/s 748 mmHg 95%
03:00 +5°C° 0 mm 5 m/s 748 mmHg 95%
04:00 +5°C° 0 mm 5 m/s 749 mmHg 94%
05:00 +5°C° 0 mm 5 m/s 749 mmHg 94%
06:00 +5°C° 0 mm 5 m/s 750 mmHg 94%
07:00 +5°C° 0.1 mm 5 m/s 750 mmHg 92%
08:00 +4°C° 0.1 mm 6 m/s 751 mmHg 91%
09:00 +4°C° 0.1 mm 6 m/s 751 mmHg 89%
10:00 +5°C° 0.1 mm 5 m/s 752 mmHg 89%
11:00 +5°C° 0.1 mm 5 m/s 752 mmHg 88%
12:00 +6°C° 0.1 mm 5 m/s 752 mmHg 88%
13:00 +5°C° 0.1 mm 6 m/s 752 mmHg 88%
14:00 +5°C° 0.1 mm 6 m/s 752 mmHg 88%
15:00 +5°C° 0.1 mm 7 m/s 752 mmHg 88%
16:00 +7°C° 0 mm 6 m/s 753 mmHg 88%
17:00 +7°C° 0 mm 6 m/s 753 mmHg 87%
18:00 +8°C° 0 mm 5 m/s 753 mmHg 86%
19:00 +8°C° 0 mm 5 m/s 753 mmHg 88%
20:00 +7°C° 0 mm 5 m/s 754 mmHg 89%
21:00 +7°C° 0 mm 5 m/s 754 mmHg 90%
22:00 +6°C° 0 mm 5 m/s 754 mmHg 91%
23:00 +6°C° 0 mm 5 m/s 753 mmHg 92%

Poimâine, 11 Mai, Marţi

Timp Temperatura Precipitaţii Vânt Presiune Umiditate
00:00 +6°C° 0 mm 5 m/s 753 mmHg 92%
01:00 +6°C° 0 mm 5 m/s 753 mmHg 93%
02:00 +6°C° 0 mm 5 m/s 753 mmHg 93%
03:00 +6°C° 0 mm 5 m/s 754 mmHg 94%
04:00 +6°C° 0 mm 5 m/s 754 mmHg 93%
05:00 +6°C° 0 mm 5 m/s 754 mmHg 91%
06:00 +7°C° 0 mm 6 m/s 754 mmHg 90%
07:00 +9°C° 0 mm 6 m/s 754 mmHg 86%
08:00 +11°C° 0 mm 6 m/s 754 mmHg 81%
09:00 +13°C° 0 mm 6 m/s 754 mmHg 77%
10:00 +15°C° 0 mm 6 m/s 754 mmHg 73%
11:00 +17°C° 0 mm 6 m/s 754 mmHg 69%
12:00 +19°C° 0 mm 6 m/s 754 mmHg 65%
13:00 +20°C° 0 mm 5 m/s 754 mmHg 66%
14:00 +20°C° 0 mm 5 m/s 754 mmHg 67%
15:00 +20°C° 0 mm 5 m/s 754 mmHg 68%
16:00 +20°C° 0.5 mm 4 m/s 754 mmHg 71%
17:00 +19°C° 0.5 mm 4 m/s 754 mmHg 74%
18:00 +18°C° 0.5 mm 4 m/s 754 mmHg 78%
19:00 +17°C° 0.5 mm 3 m/s 754 mmHg 83%
20:00 +16°C° 0.5 mm 2 m/s 755 mmHg 89%
21:00 +14°C° 0.5 mm 1 m/s 755 mmHg 95%
22:00 +14°C° 0.1 mm 1 m/s 754 mmHg 95%
23:00 +13°C° 0.1 mm 1 m/s 754 mmHg 95%

12 Mai, Miercuri

Timp Temperatura Precipitaţii Vânt Presiune Umiditate
00:00 +13°C° 0.1 mm 1 m/s 754 mmHg 95%
01:00 +13°C° 0 mm 2 m/s 754 mmHg 95%
02:00 +13°C° 0 mm 2 m/s 754 mmHg 95%
03:00 +11°C° 0 mm 3 m/s 754 mmHg 94%
04:00 +11°C° 0 mm 3 m/s 754 mmHg 95%
05:00 +12°C° 0 mm 3 m/s 754 mmHg 96%
06:00 +13°C° 0 mm 2 m/s 754 mmHg 96%
07:00 +12°C° 0 mm 3 m/s 754 mmHg 94%
08:00 +13°C° 0 mm 4 m/s 754 mmHg 92%
09:00 +14°C° 0 mm 4 m/s 755 mmHg 89%
10:00 +15°C° 0 mm 5 m/s 754 mmHg 86%
11:00 +16°C° 0 mm 5 m/s 754 mmHg 83%
12:00 +17°C° 0 mm 5 m/s 754 mmHg 80%
13:00 +17°C° 0.1 mm 5 m/s 754 mmHg 80%
14:00 +16°C° 0.1 mm 5 m/s 754 mmHg 81%
15:00 +17°C° 0.1 mm 4 m/s 754 mmHg 81%
16:00 +17°C° 0.1 mm 4 m/s 754 mmHg 82%
17:00 +16°C° 0.1 mm 3 m/s 754 mmHg 83%
18:00 +16°C° 0.1 mm 3 m/s 753 mmHg 84%
19:00 +16°C° 0 mm 3 m/s 753 mmHg 83%
20:00 +14°C° 0 mm 3 m/s 753 mmHg 83%
21:00 +14°C° 0 mm 4 m/s 753 mmHg 82%
22:00 +13°C° 0 mm 4 m/s 753 mmHg 83%
23:00 +13°C° 0 mm 4 m/s 753 mmHg 84%

13 Mai, Joi

Timp Temperatura Precipitaţii Vânt Presiune Umiditate
00:00 +13°C° 0 mm 3 m/s 753 mmHg 84%
01:00 +13°C° 0 mm 3 m/s 753 mmHg 84%
02:00 +12°C° 0 mm 3 m/s 753 mmHg 84%
03:00 +12°C° 0 mm 3 m/s 753 mmHg 84%
04:00 +12°C° 0 mm 3 m/s 753 mmHg 83%
05:00 +12°C° 0 mm 3 m/s 753 mmHg 83%
06:00 +12°C° 0 mm 3 m/s 753 mmHg 82%
07:00 +13°C° 0 mm 4 m/s 753 mmHg 79%
08:00 +14°C° 0 mm 4 m/s 753 mmHg 76%
09:00 +15°C° 0 mm 4 m/s 752 mmHg 73%
10:00 +17°C° 0 mm 4 m/s 752 mmHg 70%
11:00 +19°C° 0 mm 4 m/s 752 mmHg 67%
12:00 +20°C° 0 mm 5 m/s 752 mmHg 63%
13:00 +20°C° 0 mm 5 m/s 752 mmHg 63%
14:00 +21°C° 0 mm 5 m/s 752 mmHg 63%
15:00 +22°C° 0 mm 5 m/s 751 mmHg 63%
16:00 +21°C° 0.4 mm 5 m/s 751 mmHg 68%
17:00 +21°C° 0.4 mm 5 m/s 751 mmHg 73%
18:00 +20°C° 0.4 mm 5 m/s 751 mmHg 79%
19:00 +19°C° 0.1 mm 5 m/s 751 mmHg 82%
20:00 +18°C° 0.1 mm 4 m/s 751 mmHg 86%
21:00 +17°C° 0.1 mm 3 m/s 751 mmHg 89%
22:00 +17°C° 0 mm 4 m/s 751 mmHg 89%
23:00 +15°C° 0 mm 4 m/s 751 mmHg 89%

14 Mai, Vineri

Timp Temperatura Precipitaţii Vânt Presiune Umiditate
00:00 +15°C° 0 mm 4 m/s 751 mmHg 89%
01:00 +15°C° 0.1 mm 4 m/s 751 mmHg 88%
02:00 +14°C° 0.1 mm 3 m/s 751 mmHg 87%
03:00 +14°C° 0.1 mm 3 m/s 751 mmHg 85%
04:00 +14°C° 0 mm 3 m/s 751 mmHg 85%
05:00 +14°C° 0 mm 3 m/s 751 mmHg 85%
06:00 +13°C° 0 mm 3 m/s 751 mmHg 84%
07:00 +15°C° 0 mm 4 m/s 751 mmHg 79%
08:00 +17°C° 0 mm 4 m/s 750 mmHg 73%
09:00 +19°C° 0 mm 4 m/s 750 mmHg 67%
10:00 +20°C° 0 mm 4 m/s 750 mmHg 65%
11:00 +22°C° 0 mm 4 m/s 750 mmHg 62%
12:00 +23°C° 0 mm 4 m/s 750 mmHg 59%
13:00 +25°C° 0 mm 4 m/s 750 mmHg 60%
14:00 +25°C° 0 mm 4 m/s 750 mmHg 61%
15:00 +26°C° 0 mm 5 m/s 750 mmHg 62%
16:00 +25°C° 0 mm 4 m/s 749 mmHg 65%
17:00 +25°C° 0 mm 4 m/s 749 mmHg 67%
18:00 +23°C° 0 mm 4 m/s 749 mmHg 70%
19:00 +21°C° 0 mm 4 m/s 749 mmHg 75%
20:00 +19°C° 0 mm 4 m/s 749 mmHg 79%
21:00 +18°C° 0 mm 3 m/s 749 mmHg 84%
22:00 +17°C° 0 mm 3 m/s 748 mmHg 85%
23:00 +17°C° 0 mm 3 m/s 748 mmHg 87%
Arată mai mult

Formular de consimțământ

Meteoprog și furnizorii noștri de servicii pot stoca și accesa date personale, precum cookies, identificatori de dispozitiv sau alte tehnologii similare pe dispozitivul dumneavoastră și procesa astfel de date pentru a personaliza conținutul și reclamele, dar și pentru a oferi caracteristici de social media și pentru a analiza traficul.

  • Stocarea și/sau accesarea informațiilor pe dispozitivul dumneavoastră

    Cookies, identificatori de dispozitiv sau alte informații pot fi stocate sau accesate pe dispozitiv în scopurile indicate mai sus.

  • Reclame și conținut personalizat, evaluarea reclamelor și a conținutului, informații despre audiențe și dezvoltarea produselor

    Reclamele și conținutul pot fi personalizate pe baza unui profil. Pot fi adăugate date suplimentare pentru a personaliza mai bine reclamele și conținutul. Performanța reclamelor și conținutului poate fi măsurată. Pot fi obținute informații despre utilizatorii care au văzut reclamele și conținutul. Aceste date pot fi utilizate pentru a dezvolta sau îmbunătăți experiența utilizatorilor, sistemele și software-ul.

Dând clic pe ‘Sunt de acord’, permiteți utilizarea cookie-urilor menționate, a identificatorilor de dispozitiv, balizelor web sau altor tehnologii similare. Setările pot fi modificate din browser-ul dispozitivului dumneavoastră.

În anumite scopuri, interesele legitime pot prima asupra consimțământului. Puteți citi mai multe informații în acest sens în Politica privind Confidențialitatea Datelor și Cookie.